This is the latest recevied weather packets stored in our database for station/object KT5AL. If no packets are shown the sender has not sent any weather packets the latest 10 day(s).
| Time | Temp. | Humidity | Pressure | Rain* | Wind** | Luminosity | Snow |
|---|---|---|---|---|---|---|---|
| 1777671008 | 17.78° C | 60% | 1016.5 hPa | 0 mm | - | - | - |
| 1777670705 | 17.78° C | 60% | 1016.8 hPa | 0 mm | - | - | - |
| 1777670408 | 17.78° C | 61% | 1016.8 hPa | 0 mm | - | - | - |
| 1777670105 | 17.78° C | 60% | 1016.8 hPa | 0 mm | - | - | - |
| 1777669808 | 17.78° C | 60% | 1016.8 hPa | 0 mm | - | - | - |
| 1777669505 | 17.78° C | 61% | 1017.1 hPa | 0 mm | - | - | - |
| 1777669208 | 17.78° C | 62% | 1017.1 hPa | 0 mm | - | - | - |
| 1777668903 | 17.78° C | 62% | 1017.1 hPa | 0 mm | - | - | - |
| 1777668606 | 17.78° C | 62% | 1017.1 hPa | 0 mm | - | - | - |
| 1777668306 | 17.78° C | 62% | 1017.5 hPa | 0 mm | - | - | - |
| 1777668004 | 17.22° C | 62% | 1017.5 hPa | 0 mm | - | - | - |
| 1777667707 | 17.22° C | 61% | 1017.8 hPa | 0 mm | - | - | - |
| 1777667403 | 17.22° C | 62% | 1017.8 hPa | 0 mm | - | - | - |
| 1777667106 | 17.22° C | 60% | 1017.5 hPa | 0 mm | - | - | - |
| 1777666802 | 17.22° C | 60% | 1017.5 hPa | 0 mm | - | - | - |
| 1777666506 | 17.22° C | 60% | 1017.5 hPa | 0 mm | - | - | - |
| 1777666203 | 17.22° C | 60% | 1017.5 hPa | 0 mm | - | - | - |
| 1777665905 | 17.22° C | 60% | 1017.5 hPa | 0 mm | - | - | - |
| 1777665603 | 17.22° C | 61% | 1017.5 hPa | 0 mm | - | - | - |
| 1777665306 | 17.22° C | 60% | 1017.1 hPa | 0 mm | - | - | - |
| 1777665007 | 17.22° C | 61% | 1017.1 hPa | 0 mm | - | - | - |
| 1777664729 | 17.22° C | 64% | 1017.1 hPa | 0 mm | - | - | - |
| 1777664406 | 17.22° C | 61% | 1017.1 hPa | 0 mm | - | - | - |
| 1777664103 | 17.22° C | 62% | 1017.1 hPa | 0 mm | - | - | - |
| 1777663806 | 17.22° C | 62% | 1017.1 hPa | 0 mm | - | - | - |
* Rain latest hour (hover to see other rain measurements)
** Current wind speed in m/s (hover to see current wind gust speed)